Total_Precipitation_Accumulation
0.00 0.00 0.01 0.01 0.01 0.02 0.03 0.05 0.14 0.22 0.14 0.16 0.29 0.46 0.68 0.84 0.98 1.04 1.23 1.22 1.37 1.61 1.79 2.15 2.48 2.91 3.34 3.85 4.54 5.09 5.42 5.33 5.06 4.66 4.22 3.88 3.38 3.01 2.67 2.31 2.02 1.81 1.67 1.61
0.01 0.02 0.01 0.02 0.02 0.03 0.05 0.08 0.17 0.21 0.14 0.15 0.30 0.50 0.77 0.85 0.84 0.85 1.07 1.18 1.23 1.40 1.69 1.97 2.46 2.80 3.15 3.61 4.08 4.45 4.36 4.00 3.83 3.73 3.56 3.23 3.13 2.96 2.69 2.44 2.17 1.78 1.63 1.52
0.03 0.03 0.02 0.02 0.04 0.04 0.06 0.08 0.14 0.19 0.22 0.23 0.33 0.65 0.88 0.90 0.82 0.77 0.80 0.91 0.99 1.11 1.31 1.61 2.13 2.44 2.62 2.99 3.28 3.31 3.14 2.88 2.84 2.81 2.68 2.67 2.79 2.84 2.72 2.51 2.22 1.91 1.72 1.62
0.02 0.02 0.03 0.03 0.06 0.05 0.09 0.06 0.07 0.10 0.19 0.41 0.47 0.82 1.06 1.11 1.08 0.90 0.79 0.87 0.90 0.91 0.95 1.27 1.64 1.82 2.02 2.19 2.34 2.36 2.34 2.23 2.18 2.18 2.03 1.85 1.89 2.06 2.22 2.35 2.29 2.25 2.07 1.84
0.03 0.04 0.04 0.05 0.05 0.06 0.06 0.05 0.06 0.09 0.15 0.30 0.41 0.65 1.03 1.25 1.40 1.02 0.80 0.76 0.70 0.75 0.91 1.10 1.21 1.32 1.44 1.46 1.61 1.65 1.81 2.00 2.04 1.99 2.05 1.86 1.55 1.46 1.44 1.53 1.65 1.72 1.72 1.62
0.04 0.05 0.05 0.04 0.04 0.05 0.06 0.10 0.16 0.24 0.37 0.60 0.57 0.61 0.92 1.06 1.12 0.81 0.68 0.72 0.60 0.56 0.69 0.84 0.96 1.03 1.07 1.07 1.21 1.40 1.63 1.91 2.02 1.98 1.85 1.75 1.58 1.48 1.37 1.30 1.29 1.23 1.26 1.23
0.15 0.13 0.09 0.06 0.06 0.07 0.08 0.15 0.47 0.81 1.14 1.17 0.67 0.66 0.83 0.76 0.74 0.77 0.65 0.61 0.58 0.49 0.47 0.47 0.53 0.60 0.67 0.70 0.80 1.05 1.23 1.39 1.51 1.61 1.52 1.39 1.46 1.49 1.36 1.19 1.06 0.96 0.88 0.87
0.18 0.22 0.14 0.09 0.07 0.07 0.08 0.12 0.34 0.58 0.74 0.86 0.70 1.00 1.03 0.77 0.67 0.56 0.47 0.42 0.42 0.33 0.30 0.27 0.31 0.38 0.44 0.49 0.54 0.66 0.88 1.00 1.15 1.24 1.28 1.35 1.47 1.52 1.39 1.38 1.17 1.01 0.88 0.82
0.07 0.10 0.09 0.08 0.08 0.09 0.09 0.08 0.12 0.19 0.31 0.57 0.81 0.99 0.91 0.72 0.68 0.49 0.35 0.28 0.26 0.22 0.19 0.20 0.23 0.28 0.30 0.35 0.41 0.44 0.56 0.73 0.93 1.06 1.15 1.20 1.15 1.15 1.14 1.13 1.10 0.99 0.98 0.86
0.04 0.04 0.06 0.08 0.09 0.10 0.10 0.09 0.10 0.14 0.27 0.43 0.70 1.02 1.03 0.86 0.72 0.54 0.40 0.26 0.19 0.19 0.18 0.19 0.19 0.20 0.20 0.24 0.33 0.41 0.46 0.60 0.90 1.15 1.19 1.09 0.99 0.86 0.90 0.90 0.94 0.99 0.98 0.94
0.04 0.04 0.06 0.08 0.11 0.14 0.14 0.11 0.11 0.13 0.15 0.28 0.59 0.77 0.62 0.58 0.50 0.46 0.40 0.28 0.22 0.20 0.16 0.15 0.13 0.13 0.16 0.20 0.27 0.44 0.53 0.67 0.91 1.18 1.33 1.27 1.09 0.97 0.93 0.83 0.77 0.84 0.92 0.97
0.05 0.04 0.06 0.11 0.16 0.16 0.14 0.14 0.14 0.20 0.18 0.19 0.33 0.49 0.34 0.33 0.39 0.35 0.28 0.22 0.17 0.14 0.14 0.12 0.09 0.09 0.12 0.14 0.25 0.54 0.82 1.14 1.29 1.49 1.69 1.62 1.25 1.03 0.93 0.76 0.67 0.75 0.89 0.96
0.04 0.05 0.11 0.27 0.31 0.23 0.16 0.13 0.14 0.15 0.14 0.16 0.33 0.47 0.31 0.28 0.39 0.30 0.21 0.19 0.19 0.16 0.16 0.13 0.10 0.10 0.11 0.12 0.17 0.33 0.43 0.73 1.01 1.30 1.54 1.42 1.11 0.88 0.78 0.73 0.70 0.81 0.95 0.99
0.06 0.05 0.09 0.24 0.30 0.30 0.25 0.19 0.16 0.13 0.14 0.17 0.23 0.41 0.39 0.33 0.27 0.25 0.21 0.22 0.26 0.25 0.23 0.16 0.14 0.14 0.11 0.12 0.13 0.22 0.28 0.34 0.51 0.85 1.09 1.06 0.89 0.80 0.71 0.71 0.74 0.77 0.83 0.89
0.07 0.06 0.05 0.05 0.13 0.20 0.22 0.20 0.17 0.12 0.10 0.21 0.22 0.28 0.33 0.35 0.28 0.23 0.22 0.18 0.21 0.24 0.20 0.15 0.13 0.15 0.16 0.19 0.18 0.20 0.26 0.30 0.43 0.75 0.94 0.90 0.82 0.79 0.72 0.67 0.70 0.78 0.87 0.92
0.10 0.10 0.09 0.09 0.12 0.14 0.15 0.18 0.16 0.10 0.09 0.08 0.10 0.19 0.21 0.28 0.29 0.28 0.23 0.19 0.22 0.24 0.21 0.17 0.15 0.19 0.22 0.23 0.22 0.21 0.23 0.28 0.42 0.68 0.90 0.90 0.83 0.76 0.69 0.69 0.78 0.92 0.99 1.07
0.16 0.14 0.14 0.15 0.17 0.16 0.23 0.20 0.16 0.13 0.11 0.12 0.17 0.21 0.22 0.22 0.25 0.30 0.32 0.31 0.27 0.26 0.25 0.23 0.23 0.26 0.30 0.30 0.32 0.33 0.31 0.32 0.46 0.68 0.85 0.93 0.90 0.88 0.85 0.80 0.90 1.02 1.09 1.17
0.28 0.26 0.25 0.21 0.23 0.31 0.24 0.19 0.20 0.20 0.23 0.24 0.24 0.22 0.24 0.26 0.28 0.36 0.38 0.34 0.29 0.29 0.31 0.33 0.33 0.36 0.38 0.38 0.42 0.47 0.43 0.44 0.55 0.71 0.87 0.93 0.94 0.97 1.05 1.03 1.06 1.18 1.28 1.29
0.33 0.38 0.34 0.29 0.31 0.35 0.33 0.26 0.30 0.32 0.35 0.35 0.35 0.30 0.30 0.32 0.33 0.38 0.34 0.29 0.29 0.31 0.34 0.44 0.50 0.47 0.50 0.51 0.53 0.54 0.56 0.60 0.71 0.78 0.92 1.01 1.09 1.20 1.23 1.23 1.32 1.46 1.54 1.47
0.32 0.43 0.47 0.41 0.46 0.49 0.48 0.36 0.32 0.36 0.59 0.46 0.45 0.41 0.34 0.37 0.53 0.52 0.39 0.39 0.36 0.31 0.33 0.41 0.52 0.57 0.62 0.61 0.61 0.69 0.77 0.89 1.03 1.09 1.14 1.30 1.47 1.64 1.72 1.73 1.73 1.75 1.81 1.72
0.57 0.55 0.55 0.59 0.68 0.57 0.42 0.37 0.35 0.65 0.88 0.62 0.59 0.56 0.50 0.56 0.65 0.60 0.45 0.39 0.37 0.34 0.33 0.37 0.41 0.51 0.58 0.62 0.75 0.93 1.00 1.10 1.22 1.33 1.40 1.60 1.89 2.05 1.99 1.95 1.88 1.84 1.86 1.86
0.74 0.72 0.72 0.76 0.93 0.91 0.51 0.47 0.71 0.87 0.74 0.69 0.67 0.69 0.66 0.64 0.68 0.64 0.56 0.46 0.37 0.35 0.35 0.37 0.41 0.45 0.56 0.68 0.91 1.19 1.27 1.25 1.32 1.50 1.67 1.87 2.08 2.06 1.96 2.09 2.01 1.97 2.01 2.00
0.71 0.79 0.87 0.91 1.02 0.86 0.61 0.73 0.89 0.81 0.75 0.71 0.69 0.68 0.61 0.58 0.65 0.63 0.54 0.50 0.39 0.34 0.38 0.43 0.49 0.57 0.65 0.81 1.12 1.40 1.47 1.52 1.55 1.66 1.80 1.92 2.01 2.16 2.30 2.34 2.25 2.16 2.10 2.08
0.69 0.68 0.83 0.99 1.06 0.93 0.76 0.75 0.73 0.68 0.67 0.67 0.62 0.59 0.57 0.54 0.55 0.53 0.47 0.42 0.39 0.39 0.43 0.50 0.57 0.71 0.88 1.04 1.29 1.40 1.44 1.46 1.49 1.52 1.55 1.69 1.88 1.99 2.09 2.31 2.36 2.29 2.17 2.12
0.73 0.68 0.81 1.10 1.22 1.13 0.99 0.81 0.69 0.66 0.63 0.66 0.70 0.65 0.63 0.60 0.55 0.47 0.42 0.40 0.40 0.41 0.47 0.58 0.66 0.75 0.87 1.03 1.20 1.23 1.32 1.41 1.52 1.52 1.48 1.49 1.55 1.69 1.79 1.92 2.04 2.05 2.05 1.85
0.63 0.71 0.83 1.07 0.99 0.99 1.05 0.90 0.70 0.65 0.72 0.80 0.89 0.85 0.70 0.61 0.59 0.54 0.47 0.41 0.38 0.38 0.46 0.57 0.67 0.78 0.87 0.99 1.17 1.24 1.32 1.40 1.48 1.48 1.42 1.42 1.45 1.55 1.64 1.69 1.65 1.48 1.41 1.23